| time (UTC) | temp C | wind direction | speed KPH | gust KPH | rain 1hr cm | rain 24hr cm | rain mn cm | humidity % | barometer mb |
| 20260504081512 | 1 | 55 | 0.0 | 0.0 | 0.00 | 0.00 | 0.00 | 91 | 1012.8 |
| 20260504060104 | 2 | 55 | 0.0 | 0.0 | 0.00 | 0.00 | 0.00 | 89 | 1012.7 |
| 20260504044601 | 3 | 55 | 0.0 | 0.0 | 0.00 | 0.00 | 0.00 | 85 | 1012.7 |
| 20260504043051 | 3 | 55 | 0.0 | 0.0 | 0.00 | 0.00 | 0.00 | 84 | 1012.6 |
| 20260504041550 | 4 | 55 | 0.0 | 0.0 | 0.00 | 0.00 | 0.00 | 82 | 1012.6 |
| 20260504040042 | 4 | 55 | 0.0 | 0.0 | 0.00 | 0.00 | 0.00 | 80 | 1012.4 |
| 20260504034550 | 5 | 55 | 0.0 | 0.0 | 0.00 | 0.00 | 0.00 | 79 | 1012.2 |
| 20260504033050 | 5 | 55 | 0.0 | 0.0 | 0.00 | 0.00 | 0.00 | 77 | 1012.0 |
| 20260504031536 | 5 | 55 | 0.0 | 0.0 | 0.00 | 0.00 | 0.00 | 75 | 1012.0 |
| 20260504030030 | 6 | 55 | 0.0 | 0.0 | 0.00 | 0.00 | 0.00 | 74 | 1011.9 |
| 20260504024530 | 6 | 55 | 0.0 | 0.0 | 0.00 | 0.00 | 0.00 | 71 | 1011.9 |
| 20260504023027 | 7 | 55 | 0.0 | 0.0 | 0.00 | 0.00 | 0.00 | 68 | 1011.8 |
| 20260504021534 | 7 | 55 | 0.0 | 0.0 | 0.00 | 0.00 | 0.00 | 66 | 1011.8 |
| 20260504020013 | 8 | 55 | 0.0 | 0.0 | 0.00 | 0.00 | 0.00 | 64 | 1011.8 |
| 20260504014502 | 8 | 55 | 0.0 | 0.0 | 0.00 | 0.00 | 0.00 | 61 | 1011.8 |
| 20260504013106 | 9 | 55 | 0.0 | 0.0 | 0.00 | 0.00 | 0.00 | 59 | 1011.7 |
| 20260504011559 | 10 | 55 | 0.0 | 1.6 | 0.00 | 0.00 | 0.00 | 56 | 1011.7 |
| 20260504010101 | 10 | 55 | 0.0 | 0.0 | 0.00 | 0.00 | 0.00 | 53 | 1011.5 |
| 20260504004556 | 11 | 55 | 0.0 | 0.0 | 0.00 | 0.00 | 0.00 | 51 | 1011.5 |
| 20260504003053 | 12 | 55 | 0.0 | 1.6 | 0.00 | 0.00 | 0.00 | 48 | 1011.2 |
| 20260504001609 | 12 | 55 | 0.0 | 3.2 | 0.00 | 0.00 | 0.00 | 45 | 1011.0 |
| 20260504000049 | 13 | 68 | 3.2 | 12.9 | 0.00 | 0.00 | 0.00 | 41 | 1010.8 |
| 20260503234546 | 13 | 74 | 3.2 | 19.3 | 0.00 | 0.00 | 0.00 | 40 | 1010.7 |
| 20260503233046 | 14 | 132 | 4.8 | 16.1 | 0.00 | 0.00 | 0.00 | 41 | 1010.6 |
| 20260503231545 | 14 | 101 | 3.2 | 17.7 | 0.00 | 0.00 | 0.00 | 39 | 1010.5 |
| 20260503230041 | 15 | 115 | 11.3 | 25.7 | 0.00 | 0.00 | 0.00 | 38 | 1010.4 |
| 20260503224541 | 15 | 100 | 8.0 | 19.3 | 0.00 | 0.00 | 0.00 | 37 | 1010.4 |
| 20260503223033 | 15 | 80 | 3.2 | 17.7 | 0.00 | 0.00 | 0.00 | 37 | 1010.3 |
| 20260503221538 | 15 | 96 | 4.8 | 29.0 | 0.00 | 0.00 | 0.00 | 38 | 1010.4 |
| 20260503220033 | 15 | 88 | 12.9 | 29.0 | 0.00 | 0.00 | 0.00 | 37 | 1010.4 |
| 20260503214529 | 15 | 109 | 11.3 | 25.7 | 0.00 | 0.00 | 0.00 | 37 | 1010.4 |
| 20260503213031 | 15 | 101 | 1.6 | 25.7 | 0.00 | 0.00 | 0.00 | 38 | 1010.3 |
| 20260503211524 | 15 | 87 | 4.8 | 17.7 | 0.00 | 0.00 | 0.00 | 37 | 1010.1 |
| 20260503210021 | 15 | 88 | 6.4 | 16.1 | 0.00 | 0.00 | 0.00 | 36 | 1010.2 |
| 20260503204524 | 15 | 130 | 1.6 | 22.5 | 0.00 | 0.00 | 0.00 | 40 | 1010.1 |
| 20260503203015 | 15 | 89 | 6.4 | 19.3 | 0.00 | 0.00 | 0.00 | 38 | 1010.4 |
| 20260503201524 | 15 | 107 | 6.4 | 22.5 | 0.00 | 0.00 | 0.00 | 35 | 1010.6 |
| 20260503200011 | 15 | 108 | 11.3 | 22.5 | 0.00 | 0.00 | 0.00 | 35 | 1010.5 |
| 20260503194507 | 15 | 72 | 8.0 | 29.0 | 0.00 | 0.00 | 0.00 | 35 | 1010.9 |
| 20260503193007 | 15 | 193 | 8.0 | 33.8 | 0.00 | 0.00 | 0.00 | 34 | 1011.0 |
| 20260503191506 | 15 | 238 | 11.3 | 27.4 | 0.00 | 0.00 | 0.00 | 34 | 1011.1 |
| 20260503190011 | 14 | 238 | 4.8 | 27.4 | 0.00 | 0.00 | 0.00 | 35 | 1011.4 |
| 20260503184502 | 14 | 286 | 4.8 | 33.8 | 0.00 | 0.00 | 0.00 | 35 | 1011.6 |
| 20260503183114 | 14 | 52 | 9.7 | 30.6 | 0.00 | 0.00 | 0.00 | 36 | 1011.7 |
| 20260503181623 | 13 | 144 | 9.7 | 27.4 | 0.00 | 0.00 | 0.00 | 38 | 1011.9 |
| 20260503180134 | 13 | 116 | 8.0 | 24.1 | 0.00 | 0.00 | 0.00 | 41 | 1011.9 |
| 20260503174559 | 13 | 222 | 3.2 | 29.0 | 0.00 | 0.00 | 0.00 | 40 | 1012.2 |
| 20260503173102 | 13 | 107 | 9.7 | 24.1 | 0.00 | 0.00 | 0.00 | 39 | 1012.4 |
| 20260503171551 | 12 | 82 | 14.5 | 32.2 | 0.00 | 0.00 | 0.00 | 40 | 1012.4 |